星链-2387 (STARLINK-2387 )

导读 | 豆包AI

STARLINK-2387是美国SpaceX公司星链星座中的一颗第一代低轨通信卫星,于北京时间2021年3月11日发射入轨。它属于星链大规模互联网星座组网卫星,运行在近地轨道,配备相控阵天线与氪离子推进系统,主要为全球偏远地区提供高速低延迟宽带互联网接入服务,也承担增强全球通信覆盖的星座组网功能,设计寿命约5年,退役后会受控再入大气层烧毁。

基本信息
目录编号:
47806
目录名称:
STARLINK-2387
国际标识:
2021-018V
轨道中心:
EARTH
卫星名称:
星链-2387
卫星全名:
星链-2387 (STARLINK-2387 )
卫星状态:
在轨 (已飞行1829 天)
发射日期:
2021-03-11 UTC
国别 :
美国 (US)
星等 :
--
轨道信息
数据来源 国际轨道数据 AOE轨道数据
星历时间 2026-03-13T18:42:33+0800
1天前
查看轨道信息
2026-03-11T08:00:00+0800
3天前
查看轨道信息
半长轴 6853.244km 6853.282km
偏心率 0.0002876 0.0001175
轨道倾角 53.159° 53.160°
近地点辐角 118.372° 63.303°
升交点赤经 224.993° 236.357°
平近点角 241.757° 133.701°
近地点 473.136km 474.339km
远地点 477.078km 475.951km
周期 94.103分钟 94.104分钟
每日圈数 15.302365 15.302237
详细信息
固有亮度:
5
最大亮度:
2.5
卫星平台:
Starlink V1.0
覆盖范围:
全球
运营商:
太空探索技术公司
运营商所在国:
美国
制造商(研发单位):
太空探索技术公司
制造商所在国:
美国
使用方式:
暂无
卫星简介
星链(Starlink)计划是由太空探索技术公司(SpaceX)提出的一个巨型低轨卫星互联网星座项目,计划在2019年至2024年间在太空搭建由约1.2万颗卫星组成的“星链”网络,其中1584颗将部署在地球上空550千米处的近地轨道,并从2020年开始工作。该卫星仍在工作。
2D轨道图
3D轨道图
轨道高度分析图
轨道倾角分析图
轨道综合分析图
查看轨道综合分析图